Change the Weather History Date:

Tuesday, September 24, 2013

  Actual Average Record
Temperature  
Mean Temperature 70 °F -  
Max Temperature 88 °F 86 °F 99 °F (2001)
Min Temperature 51 °F 57 °F 51 °F (2013)
Cooling Degree Days 4    
Growing Degree Days 20 (Base 50)    
Moisture  
Dew Point 25 °F    
Average Humidity 17    
Maximum Humidity 36    
Minimum Humidity 4    
Precipitation  
Precipitation 0.00 in - - ()
Sea Level Pressure  
Sea Level Pressure 29.78 in    
Wind  
Wind Speed 9 mph (South)    
Max Wind Speed 24 mph    
Max Gust Speed 32 mph    
Visibility 10 miles    
Events      
Averages and records for this station are not official NWS values.
T = Trace of Precipitation, MM = Missing Value Source: NWS Daily Summary

Daily Weather History Graph

Daily Weather History Graph

Search for Another Location

Airport or City:

Trip Planner

Search our weather history database for the weather conditions in past years. The results will help you decide how hot, cold, wet, or windy it might be!

Date:

Astronomy

Sep. 24, 2013 Rise Set
Actual Time 6:33 AM PDT 6:37 PM PDT
Civil Twilight 6:08 AM PDT 7:03 PM PDT
Nautical Twilight 5:38 AM PDT 7:33 PM PDT
Astronomical Twilight 5:07 AM PDT 8:03 PM PDT
Moon 10:06 PM PDT (9/24) 11:44 AM PDT (9/24)
Length of Visible Light 12h 55m
Length of Day
12h 03m
Waning Gibbous, 72% of the Moon is Illuminated
Sep 24
Waning Gibbous
Sep 26
Last Quarter
Oct 4
New
Oct 11
First Quarter
Oct 18
Full

Hourly Weather History & Observations

Time (PDT) Temp. Dew Point Humidity Pressure Visibility Wind Dir Wind Speed Gust Speed Precip Events Conditions
12:52 AM 62.1 °F 26.1 °F 25% 29.89 in 10.0 mi East 6.9 mph - N/A   Clear
1:52 AM 61.0 °F 26.1 °F 26% 29.89 in 10.0 mi East 6.9 mph - N/A   Clear
2:52 AM 55.0 °F 26.1 °F 33% 29.88 in 10.0 mi ENE 4.6 mph - N/A   Clear
3:52 AM 57.0 °F 26.1 °F 30% 29.88 in 10.0 mi North 4.6 mph - N/A   Clear
4:52 AM 55.0 °F 26.1 °F 33% 29.88 in 10.0 mi Calm Calm - N/A   Clear
5:52 AM 53.1 °F 25.0 °F 34% 29.90 in 10.0 mi Calm Calm - N/A   Clear
6:52 AM 51.1 °F 25.0 °F 36% 29.92 in 10.0 mi NE 3.5 mph - N/A   Clear
7:52 AM 62.1 °F 27.0 °F 26% 29.91 in 10.0 mi NNW 3.5 mph - N/A   Clear
8:52 AM 70.0 °F 26.1 °F 19% 29.90 in 10.0 mi Calm Calm - N/A   Clear
9:52 AM 73.9 °F 25.0 °F 16% 29.91 in 10.0 mi Calm Calm - N/A   Clear
10:52 AM 78.1 °F 25.0 °F 14% 29.88 in 10.0 mi East 5.8 mph - N/A   Clear
11:52 AM 84.0 °F 25.0 °F 12% 29.83 in 10.0 mi SSW 16.1 mph 28.8 mph N/A   Clear
12:52 PM 86.0 °F 25.0 °F 11% 29.81 in 10.0 mi SSW 19.6 mph 31.1 mph N/A   Clear
1:52 PM 88.0 °F 25.0 °F 10% 29.76 in 10.0 mi SW 24.2 mph 29.9 mph N/A   Clear
2:52 PM 88.0 °F 25.0 °F 10% 29.74 in 10.0 mi South 17.3 mph 26.5 mph N/A   Clear
3:52 PM 88.0 °F 24.1 °F 10% 29.72 in 10.0 mi SW 19.6 mph 29.9 mph N/A   Clear
4:52 PM 86.0 °F 24.1 °F 10% 29.70 in 10.0 mi SSW 15.0 mph 24.2 mph N/A   Clear
5:52 PM 84.0 °F 26.1 °F 12% 29.69 in 10.0 mi SSW 20.7 mph 28.8 mph N/A   Clear
6:52 PM 82.0 °F 25.0 °F 12% 29.68 in 10.0 mi South 16.1 mph 21.9 mph N/A   Clear
7:52 PM 81.0 °F 23.0 °F 12% 29.65 in 10.0 mi SSW 15.0 mph 23.0 mph N/A   Clear
8:52 PM 80.1 °F 18.0 °F 10% 29.65 in 10.0 mi SSW 16.1 mph 24.2 mph N/A   Clear
9:52 PM 79.0 °F 21.0 °F 12% 29.61 in 10.0 mi South 17.3 mph 24.2 mph N/A   Clear
10:52 PM 78.1 °F 21.9 °F 12% 29.59 in 10.0 mi SSW 21.9 mph 32.2 mph N/A   Clear
11:52 PM 77.0 °F 23.0 °F 13% 29.56 in 10.0 mi SSW 20.7 mph 31.1 mph N/A   Clear